Skip Page Navigation
NASA JPL Caltech
NASA Logo - Jet Propulsion Laboratory + View the NASA Portal
+ Center for Near-Earth Object Studies
JPL Home Earth Solar System Stars & Galaxies Technology
JPL Solar System Dynamics
BODIES ORBITS EPHEMERIDES TOOLS PHYSICAL DATA DISCOVERY FAQ SITE MAP
IMPORTANT: The SSD Announcement email list is now available. Major changes are coming in the near future, including possible hostname and/or URL changes. To be notified of such changes, subscribe to this email list.

Please visit this page for more details.


JPL Small-Body Database Browser
Search: [ help ]  
11574 d'Alviella (1994 BP3)
Classification: Main-belt Asteroid          SPK-ID: 2011574
Ephemeris | Orbit Diagram | Orbital Elements | Mission Design | Physical Parameters | Discovery Circumstances ]

[ show orbit diagram ]
Orbital Elements at Epoch 2459000.5 (2020-May-31.0) TDB
Reference: JPL 26 (heliocentric ecliptic J2000)
 Element Value Uncertainty (1-sigma)   Units 
e .2492963419109591 4.1759e-08  
a 2.293461123478782 8.4881e-09 au
q 1.721709655080523 9.6287e-08 au
i 11.78999125467864 4.3398e-06 deg
node 137.4546365738287 1.7567e-05 deg
peri 195.9858677134655 1.8892e-05 deg
M 340.7579133155923 9.9212e-06 deg
tp 2459068.308660768418
(2020-Aug-06.80866077)
3.5244e-05 TDB
period 1268.631530301313
3.47
7.0428e-06
1.928e-08
d
yr
n .283770339457428 1.5754e-09 deg/d
Q 2.86521259187704 1.0604e-08 au
  Orbit Determination Parameters
   # obs. used (total)      1609  
   data-arc span      15421 days (42.22 yr)  
   first obs. used      1977-02-18  
   last obs. used      2019-05-10  
   planetary ephem.      DE431  
   SB-pert. ephem.      SB431-N16  
   condition code      0  
   norm. resid. RMS      .51468  
   source      ORB  
   producer      Otto Matic  
   solution date      2019-May-30 01:56:22  

Additional Information
 Earth MOID = .713773 au 
 Jupiter MOID = 2.51102 au 
 T_jup = 3.528 
[ hide covariance matrix ]
Orbital Elements at Epoch 2456514.5 (2013-Aug-10.0) TDB
Reference: JPL 26 (heliocentric ecliptic J2000)
 Element Value Uncertainty (1-sigma)   Units 
e .2484562468342273 4.1568e-08  
q 1.723483646533406 9.5757e-08 au
tp 2456529.879782764039
(2013-Aug-25.37978276)
2.6753e-05 TDB
node 137.5012509201804 1.7569e-05 deg
peri 195.6702065819023 1.8917e-05 deg
i 11.78668167121962 4.3383e-06 deg
  Orbit Determination Parameters
   # obs. used (total)      1609  
   data-arc span      15421 days (42.22 yr)  
   first obs. used      1977-02-18  
   last obs. used      2019-05-10  
   planetary ephem.      DE431  
   SB-pert. ephem.      SB431-N16  
   condition code      0  
   norm. resid. RMS      .51468  
   source      ORB  
   producer      Otto Matic  
   solution date      2019-May-30 01:56:22  

Additional Information
 Jupiter MOID = 2.51102 au 
 T_jup = 3.528 
Orbit Covariance (6×6)
  e q tp node peri i
e 1.727938789323086E-15 -3.971734672010976E-15 -9.371051991918642E-14 5.442272650311865E-15 1.054547876522586E-14 1.097497375063484E-15
q -3.971734672010976E-15 9.169452849732596E-15 2.959523740920754E-13 -1.203049543116575E-14 -5.870336138532941E-15 -1.77844597973694E-15
tp -9.371051991918642E-14 2.959523740920754E-13 7.156976339619197E-10 -2.305743376045085E-12 1.965327211245611E-10 3.625175696789929E-12
node 5.442272650311865E-15 -1.203049543116575E-14 -2.305743376045085E-12 3.086783170595277E-10 -3.022010851741558E-10 1.057552074218457E-11
peri 1.054547876522586E-14 -5.870336138532941E-15 1.965327211245611E-10 -3.022010851741558E-10 3.57850690590676E-10 -9.382974856065461E-12
i 1.097497375063484E-15 -1.77844597973694E-15 3.625175696789929E-12 1.057552074218457E-11 -9.382974856065461E-12 1.882062331901829E-11

Ephemeris | Orbit Diagram | Orbital Elements | Mission Design | Physical Parameters | Discovery Circumstances ]

Physical Parameter Table
Parameter Symbol Value Units Sigma Reference Notes
absolute magnitude H 14.2   n/a MPO384859  
diameter diameter 6.536 km 0.200 urn:nasa:pds:neowise_diameters_albedos::2.0[mainbelt] (http://adsabs.harvard.edu/abs/2012ApJ...759L...8M)  
rotation period rot_per 12.549 h n/a LCDB (Rev. 2019-August); Warner et al., 2009 Result based on less than full coverage, so that the period may be wrong by 30 percent or so.
Published Reference List:
[Higgins, D.; Goncalves, R.M.D. (2007) Minor Planet Bull. 34, 16-18.]
geometric albedo albedo 0.114   0.025 urn:nasa:pds:neowise_diameters_albedos::2.0[mainbelt] (http://adsabs.harvard.edu/abs/2012ApJ...759L...8M)  

11574 d´Aviella           Discovered 1994 Jan. 16 by E. W. Elst at Caussols.
Count Goblet d´Aviella was a Belgian historian. A Grandmaster of the Grand-Orient Belgian Masonic Lodge, he wrote a manual for the higher grades of freemasonry. He presided over the Belgian Academy and was a rector and professor at the Université Libre de Bruxelles.
NOTE: some special characters may not display properly (any characters within {} are an attempt to place the proper accent above a character)
Reference: 20000523/MPCPages.arcLast Updated: 2013-03-29

Alternate Designations
 1994 BP3 = 1977 DM2 = 1998 FY82 
Ephemeris | Orbit Diagram | Orbital Elements | Mission Design | Physical Parameters | Discovery Circumstances ]
ABOUT SSD CREDITS/AWARDS PRIVACY/COPYRIGHT GLOSSARY LINKS
FirstGov 2020-Mar-29 22:56 UT
(server date/time)  
NASA Home Page
Site Manager:   Ryan S. Park
Webmaster  Alan B. Chamberlin